{"data":{"norad_id":57529,"intl_designator":"2023-115J","name":"STARLINK-30266","alt_names":[],"object_type":"PAYLOAD","status":"ACTIVE","operator":null,"country":"US","launch_date":"2023-08-08","launch_site_code":"AFWTR","launch_vehicle":null,"mission":null,"orbit_class":"UNKNOWN","rcs_meters":null,"size_class":null,"mass_kg":null,"dimensions":null,"purposes":["comms"],"wikipedia_slug":null,"has_3d_model":false,"image_url":null,"decayed_at":null,"tle_current":{"epoch":"2026-05-25T03:02:41.947296Z","epoch_age_seconds":70972,"freshness":"FRESH","line1":"1 57529U 23115J   26145.12687439  .00000449  00000+0  25827-4 0  9992","line2":"2 57529  43.0004 289.7328 0001258 279.1752  80.8957 15.27578435154047","mean_motion":15.27578435,"eccentricity":0.0001258,"inclination_deg":43.0004,"raan_deg":289.7328,"arg_perigee_deg":279.1752,"mean_anomaly_deg":80.8957,"bstar":2.5827e-5,"rev_number":15404,"period_min":94.266845289682,"perigee_km":482.19064441626,"apogee_km":483.91692001706,"semimajor_km":6861.1907822167,"source":"CELESTRAK","updated_at":"2026-05-25T13:38:18.333491Z"}}}